This is the latest recevied weather packets stored in our database for station/object KE8WMS. If no packets are shown the sender has not sent any weather packets the latest 10 day(s).
| Time | Temp. | Humidity | Pressure | Rain* | Wind** | Luminosity | Snow |
|---|---|---|---|---|---|---|---|
| 1778180569 | 13.89° C | 55% | 1008.8 hPa | 0 mm | - | 809 W/m² | - |
| 1778180267 | 13.89° C | 56% | 1008.8 hPa | 0 mm | - | 187 W/m² | - |
| 1778179963 | 13.33° C | 56% | 1008.8 hPa | 0 mm | - | 816 W/m² | - |
| 1778179661 | 13.89° C | 54% | 1009.1 hPa | 0 mm | - | 815 W/m² | - |
| 1778179359 | 12.78° C | 56% | 1008.9 hPa | 0 mm | - | 798 W/m² | - |
| 1778179055 | 13.33° C | 54% | 1008.9 hPa | 0 mm | - | 189 W/m² | - |
| 1778178752 | 13.89° C | 57% | 1009 hPa | 0 mm | - | 245 W/m² | - |
| 1778178450 | 13.33° C | 56% | 1009.1 hPa | 0 mm | - | 823 W/m² | - |
| 1778178144 | 13.33° C | 54% | 1008.9 hPa | 0 mm | - | 247 W/m² | - |
| 1778177842 | 12.78° C | 55% | 1009 hPa | 0 mm | - | 243 W/m² | - |
| 1778177538 | 13.89° C | 56% | 1009.1 hPa | 0 mm | - | 802 W/m² | - |
| 1778177235 | 13.89° C | 55% | 1008.8 hPa | 0 mm | - | 342 W/m² | - |
| 1778176932 | 12.78° C | 58% | 1009 hPa | 0 mm | - | 432 W/m² | - |
| 1778176627 | 12.78° C | 55% | 1009.1 hPa | 0 mm | - | 533 W/m² | - |
| 1778176324 | 13.33° C | 55% | 1009 hPa | 0 mm | - | 195 W/m² | - |
| 1778176022 | 13.33° C | 52% | 1009 hPa | 0 mm | - | 859 W/m² | - |
| 1778175720 | 13.33° C | 53% | 1009 hPa | 0 mm | - | 595 W/m² | - |
| 1778175417 | 13.33° C | 53% | 1009.1 hPa | 0 mm | - | 850 W/m² | - |
| 1778175113 | 13.33° C | 53% | 1009.2 hPa | 0 mm | - | 802 W/m² | - |
| 1778174810 | 13.89° C | 48% | 1009 hPa | 0 mm | - | 840 W/m² | - |
| 1778174508 | 13.33° C | 48% | 1009.3 hPa | 0 mm | - | 470 W/m² | - |
| 1778174207 | 12.78° C | 47% | 1009.3 hPa | 0 mm | - | 336 W/m² | - |
| 1778173905 | 13.33° C | 48% | 1009.1 hPa | 0 mm | - | 788 W/m² | - |
| 1778173602 | 13.89° C | 50% | 1009.1 hPa | 0 mm | - | 784 W/m² | - |
| 1778173299 | 14.44° C | 51% | 1009.2 hPa | 0 mm | - | 762 W/m² | - |
* Rain latest hour (hover to see other rain measurements)
** Current wind speed in m/s (hover to see current wind gust speed)